SCP
0 0 0 0 0 0 0 0 0 0 0 0 0 0 0 0 0 0 0 -0 -0 0 0 0 0 0 0 0 0 0 0 0 0 0 0 0 -0 -0 -0 0 0 0 0 0
0 0 0 0 0 0 0 0 0 -0 -0 0 0 0 0 0 0 0 0 0 0 0 0 0 0 0 0 0 0 0 0 0 0 0 0 0 0 -0 -0 -0 0 0 0 0
0 0 0 0 0 0 0 0 0 0 0 0 0 0 0 0 0 0 0 0 0 0 -0 -0 -0 -0 -0 -0 0 0 0 -0 -0 0 0 0 0 0 0 0 0 0 0 0
0 0 0 0 0 0 0 0 0 0 0 0 0 0 0 0 0 0 0 0 -0 -0 -0 -0 -0 -0 -0 -0 -0 -0 0 0 0 0 0 0 0 0 0 0 0 0 0 0
0 0 0 0 0 0 0 0 0 0 0 0 0 0 0 -0 -0 0 0 -0 -0 -0 -0 -0 -0 -0 -0 -0 -0 -0 -0 -0 0 0 0 0 0 0 0 0 0 0 0 0
0 0 0 0 0 0 0 0 0 0 0 0 0 0 0 0 0 0 0 0 0 0 0 0 0 -0 -0 -0 -0 -0 -0 -0 -0 0 0 0 0 0 0 0 0 0 0 0
0 0 0 0 0 0 0 0 0 0 0 0 0 0 0 0 0 0 0 0 0 0 0 0 0 0 0 0 0 -0 -0 -0 -0 -0 -0 0 0 0 0 0 0 0 0 0
0 0 0 0 0 0 0 0 0 0 0 0 0 0 0 0 0 0 0 0 0 0 0 0 0 0 0 0 0 0 0 -0 -0 -0 -0 -0 -0 -0 -0 0 0 0 0 0
0 0 0 0 0 0 0 0 0 0 0 0 0 0 0 0 0 0 0 0 0 0 0 0 0 0 0 0 0 0 0 -0 -0 -0 -0 -0 -0 -0 -0 -0 0 0 0 0
0 0 0 0 0 0 0 0 0 0 0 0 0 0 0 0 0 0 0 0 0 0 0 0 0 0 0 0 0 0 0 0 -0 -0 -0 -0 -0 -0 -0 -0 -0 0 0 0
0 0 0 0 0 0 0 0 0 0 0 0 0 0 0 0 0 0 0 0 0 0 0 0 0 0 0 0 0 0 0 0 0 -0 -0 -0 0 0 0 0 -0 0 0 0
0 0 0 0 0 0 0 0 0 0 0 0 0 0 0 0 0 0 0 0 0 0 0 0 0 0 0 0 0 0 0 0 0 0 0 0 -0 -0 0 -0 -0 -0 0 0
0 0 0 0 0 0 0 0 0 0 0 0 0 0 0 0 0 0 0 0 0 0 0 0 0 0 0 0 0 0 0 0 0 0 0 0 0 0 0 -0 0 0 0 0
0 0 0 0 0 0 0 0 0 0 0 0 0 0 0 0 0 0 0 0 0 0 0 0 0 0 0 0 0 0 0 0 0 0 0 0 0 0 0 0 0 0 0 0
0 0 0 0 0 0 0 0 0 0 0 0 0 0 0 0 0 0 0 0 0 0 -0 -0 0 0 0 0 0 0 0 0 0 0 0 0 0 0 0 0 0 0 0 0
0 0 0 0 0 0 0 0 0 0 0 0 0 0 0 0 0 0 0 0 0 0 -0 0 0 0 0 0 0 0 0 0 0 0 0 0 0 0 0 0 0 0 0 0
0 0 0 0 0 0 0 0 0 0 0 0 0 0 0 0 0 0 0 0 0 0 0 0 0 0 0 0 0 0 0 0 0 0 0 0 0 0 0 0 0 0 0 0
0 0 0 0 0 0 0 0 0 0 0 0 0 0 0 -0 -0 -0 0 0 0 0 0 0 0 0 0 0 0 0 0 0 -0 -0 -0 -0 -0 -0 -0 0 0 0 0 0
0 0 0 0 0 0 0 0 0 0 0 0 0 0 -0 -0 -0 0 0 0 0 0 0 0 -0 -0 0 0 0 0 0 0 0 0 -0 -0 0 0 0 0 0 0 0 0
0 0 0 0 0 0 0 0 0 0 0 0 -0 -0 -0 -0 -0 0 0 0 0 0 0 0 0 0 0 0 0 0 0 0 0 0 -0 -0 0 0 0 0 -0 -0 0 0
0 0 0 0 0 0 0 0 0 0 0 -0 -0 -0 -0 -0 -0 0 0 0 0 0 0 0 0 0 0 0 0 0 0 0 0 0 0 0 0 0 0 -0 -0 0 0 0
0 0 0 0 0 0 0 0 0 0 -0 -0 -0 0 0 -0 -0 0 0 0 0 0 0 0 0 0 0 0 0 -0 -0 -0 -0 -0 0 -0 -0 -0 -0 -0 0 0 0 0
0 0 0 0 0 0 0 0 0 -0 -0 -0 0 0 0 -0 -0 -0 0 0 0 0 0 0 0 0 0 0 0 0 0 0 -0 -0 -0 -0 -0 0 0 0 0 0 0 0
0 0 0 0 0 0 0 0 -0 -0 0 0 0 0 0 -0 -0 0 -0 -0 -0 0 0 0 0 0 0 0 0 0 0 0 0 0 0 -0 -0 -0 -0 0 0 0 0 0
0 0 0 0 0 0 -0 -0 0 0 0 0 0 0 0 0 0 0 0 0 0 0 0 0 0 0 0 0 0 0 0 0 0 0 0 0 0 0 -0 -0 0 -0 -0 -0
0 0 0 0 0 -0 0 0 0 0 0 0 0 0 0 0 0 0 0 0 0 0 0 0 0 0 0 0 0 0 0 0 0 0 0 0 0 0 0 0 0 0 0 -0
0 0 0 -0 -0 0 0 0 0 0 0 0 0 0 0 0 0 0 0 0 0 0 0 0 0 0 0 0 0 0 0 0 0 0 0 0 0 0 -0 -0 -0 -0 -0 -0
Wind_Speed_500mb
24 14 6 5 16 31 32 32 23 39 46 45 6 10 20 27 20 24 29 32 44 47 43 50 57 62 66 67 67 68 69 65 62 61 62 62 65 66 60 60 61 61 70 83
8 12 7 18 25 33 35 37 36 42 47 13 3 11 17 28 19 23 36 50 54 49 44 51 57 62 65 67 67 68 69 70 66 64 63 65 68 69 67 67 64 62 70 77
14 13 14 20 32 32 28 34 13 25 3 4 5 8 13 24 16 27 47 57 59 52 46 56 57 55 61 64 67 69 72 76 78 74 69 66 66 67 67 67 70 67 69 71
19 9 37 16 6 1 7 5 10 8 6 11 14 19 24 26 22 37 50 59 60 58 56 62 55 56 59 57 61 65 68 73 77 83 84 78 75 74 68 67 67 71 64 66
5 13 17 24 9 10 10 11 14 10 7 18 24 21 39 25 32 42 52 63 63 60 65 73 69 65 67 65 63 67 73 78 79 82 87 93 90 86 80 73 66 66 72 66
5 8 13 7 4 5 8 8 15 20 13 16 15 4 22 40 40 47 60 69 67 64 73 81 79 78 78 78 80 81 83 82 86 89 89 93 95 97 91 82 77 68 68 75
22 13 12 9 10 12 10 10 23 23 34 33 12 34 64 62 50 55 69 72 71 70 79 85 83 84 88 89 89 87 88 93 97 95 100 100 100 101 101 90 83 80 73 67
5 3 14 12 6 9 9 46 49 46 47 42 51 57 59 68 68 68 74 79 77 78 87 92 90 93 96 99 98 96 100 99 98 99 106 111 110 107 102 100 88 84 83 74
19 12 9 19 30 64 65 52 67 57 61 61 55 60 62 63 67 73 76 77 82 91 98 100 97 97 99 107 106 111 113 115 115 113 107 110 117 116 108 99 96 87 80 80
21 26 30 61 71 72 69 72 71 67 63 61 56 54 51 60 71 76 81 86 85 86 97 107 106 105 105 111 110 114 122 127 127 127 124 116 112 115 107 97 87 87 81 83
28 33 40 59 68 70 61 57 53 49 42 40 41 48 55 68 74 82 88 86 84 84 86 101 102 112 110 105 107 119 125 129 128 123 120 116 110 108 106 100 77 80 80 77
31 45 42 52 60 40 36 31 38 43 45 43 43 52 62 73 77 83 88 88 92 96 90 99 99 107 103 104 104 109 115 113 103 99 100 101 102 108 103 89 70 72 74 70
50 75 67 56 40 39 27 30 34 35 39 51 55 54 61 72 80 88 97 96 93 94 96 101 103 104 100 96 90 90 92 95 93 87 87 86 84 82 92 96 71 62 66 64
60 51 42 43 21 23 25 32 38 41 44 48 54 60 68 78 88 93 97 93 88 86 91 92 92 93 91 87 85 84 83 83 85 86 84 80 75 77 74 77 76 61 56 56
50 41 36 28 26 27 30 34 42 46 48 52 58 65 71 79 84 87 84 78 81 86 86 85 87 90 82 78 78 77 77 79 78 79 78 79 77 79 79 74 75 70 62 58
24 21 19 18 21 26 31 34 41 48 56 63 67 70 71 72 73 72 71 75 78 82 80 75 74 74 73 71 72 74 76 75 74 74 74 75 75 73 70 67 66 58 62 58
12 12 17 20 21 27 30 34 42 54 62 65 67 68 69 66 64 66 71 71 75 78 76 71 74 75 68 72 73 71 68 69 68 69 70 68 67 64 59 59 52 56 58 51
15 16 17 21 25 31 37 43 49 56 61 62 63 62 60 56 58 65 69 74 78 79 73 70 67 62 62 59 58 59 61 64 63 63 60 61 63 59 45 41 47 48 44 38
12 15 19 22 28 36 44 49 51 55 55 54 56 54 49 46 52 57 63 69 72 82 80 69 60 57 61 61 51 49 48 49 49 47 43 40 34 29 33 33 31 29 26 25
15 20 24 30 34 40 47 45 48 50 46 46 45 43 41 41 44 49 55 59 63 67 68 63 60 63 61 52 45 42 41 41 39 36 32 28 22 15 11 11 11 14 18 22
20 26 31 35 39 39 40 42 45 45 40 35 34 33 35 36 36 44 50 58 60 63 67 65 68 67 55 48 43 40 37 36 36 35 34 31 26 19 12 5 7 10 13 18
24 28 32 35 38 39 33 33 33 34 32 27 24 24 27 28 32 35 40 50 56 58 59 63 66 61 58 53 49 45 42 39 38 37 36 34 32 29 27 21 18 17 16 15
26 29 32 32 32 32 28 25 24 24 22 19 18 18 19 23 28 36 42 45 47 50 50 54 55 56 60 63 64 61 56 51 47 44 41 37 36 34 34 32 30 28 30 36
24 25 25 25 25 23 24 20 18 15 15 13 11 12 15 19 19 28 30 33 36 41 44 47 49 49 52 57 61 64 67 66 63 58 51 43 41 39 39 37 35 35 37 40
19 19 20 20 18 18 18 16 12 9 8 5 6 8 13 18 23 26 28 30 33 35 38 40 42 44 48 51 52 54 57 59 58 58 59 59 56 53 48 43 40 38 37 36
13 14 16 16 17 16 13 11 10 8 8 7 9 10 12 14 17 19 23 26 29 32 35 37 40 41 43 43 43 45 46 47 47 48 48 49 48 48 47 45 42 38 35 32
12 13 14 13 13 12 10 9 8 8 9 10 10 12 13 15 16 18 21 23 26 29 31 33 35 37 37 37 38 38 38 37 36 36 36 36 36 36 35 33 31 28 26 23
Wind_Direction_500mb
265 287 340 283 280 274 265 261 261 282 281 275 40 354 337 332 340 352 357 352 350 350 348 336 339 338 340 340 341 341 339 340 340 336 335 334 334 330 316 294 286 279 273 268
270 280 278 281 277 265 274 272 261 260 264 61 71 346 326 332 326 333 337 340 343 341 341 334 335 335 333 334 338 336 334 336 334 334 330 323 323 328 329 321 300 286 279 274
263 305 323 283 257 266 260 260 249 259 246 211 246 247 281 307 300 322 335 334 331 327 325 324 328 330 329 332 331 332 334 335 333 333 329 326 320 315 318 322 319 300 283 277
274 22 270 276 9 274 222 104 114 105 208 217 241 274 280 289 266 317 327 325 322 317 316 317 316 319 321 324 326 327 327 328 330 332 330 326 323 319 314 309 311 311 297 283
205 222 306 301 213 195 167 257 174 176 245 257 271 289 282 264 247 298 318 320 315 310 312 314 312 315 316 315 317 320 323 324 325 327 325 326 325 321 315 309 301 301 304 296
87 202 225 245 203 151 114 276 207 199 237 241 250 243 270 281 262 300 314 316 311 307 310 311 310 313 312 311 312 312 315 316 317 319 319 319 321 320 316 313 304 295 297 299
227 249 286 241 207 138 93 263 214 250 275 254 207 257 277 281 279 300 307 309 309 305 308 309 305 306 305 305 304 307 306 308 310 311 311 313 314 315 314 312 306 297 289 288
72 14 278 185 144 159 228 295 296 294 292 280 283 290 285 281 278 297 302 306 306 303 305 305 302 302 302 301 305 305 303 301 300 302 305 307 308 309 309 307 303 297 292 286
195 210 219 204 262 287 287 280 287 283 295 302 297 292 293 285 286 296 301 303 304 305 305 303 303 303 300 300 302 301 301 300 299 299 297 298 301 302 304 303 299 295 288 283
265 255 254 267 273 278 285 287 289 292 300 302 297 294 286 290 297 303 304 304 306 303 302 302 302 301 298 300 299 298 298 297 297 297 295 293 293 295 297 296 292 290 288 281
258 261 265 265 265 270 286 290 287 291 294 295 295 296 303 302 304 305 306 306 306 302 299 297 298 297 296 296 296 296 296 296 295 296 295 294 290 288 288 287 281 279 278 278
261 257 260 267 276 285 289 278 283 291 294 298 306 306 307 304 307 309 309 309 307 305 300 298 297 295 295 295 294 294 295 295 295 294 293 292 290 287 282 284 279 266 264 263
249 261 264 270 276 282 277 285 290 295 299 302 305 308 308 309 311 311 310 312 312 308 305 304 303 302 305 304 302 299 297 297 295 292 291 290 289 286 287 285 282 267 261 261
256 260 267 265 260 277 288 291 295 300 305 307 310 312 314 313 313 317 319 320 319 319 319 317 314 310 315 312 308 303 301 298 295 292 289 287 282 281 281 284 287 281 267 264
252 252 251 260 274 282 290 296 299 306 310 313 315 318 320 319 319 320 324 326 328 327 324 318 311 311 319 315 309 306 304 301 300 297 291 287 283 279 281 280 276 272 267 270
231 242 254 262 273 286 297 304 307 312 316 316 319 320 319 320 321 325 332 335 326 322 328 325 322 324 323 319 316 313 309 305 302 297 294 289 287 285 282 278 277 270 261 271
244 247 254 267 286 296 301 308 311 311 312 314 317 318 321 324 327 335 335 334 333 332 330 328 325 326 325 325 321 315 313 312 311 308 304 302 297 290 285 275 271 263 268 274
257 264 276 290 299 302 307 311 312 311 311 316 316 318 323 329 334 335 338 341 343 340 341 332 329 330 327 326 326 323 320 318 318 313 313 306 300 296 291 282 270 274 280 277
260 275 285 292 298 302 304 307 308 307 312 314 315 318 323 331 335 337 345 348 351 347 346 342 341 337 338 338 331 329 331 331 332 331 328 323 320 309 288 285 282 281 277 260
281 290 299 302 302 302 304 309 307 307 314 311 313 317 325 334 337 346 351 357 0 352 353 354 353 355 346 346 347 348 349 350 351 353 353 353 353 343 319 296 275 263 246 232
298 301 303 303 305 310 312 310 308 309 311 310 312 318 324 337 346 358 358 3 4 6 9 9 10 360 359 1 2 5 7 11 15 17 20 23 24 31 41 90 159 177 182 179
302 308 313 313 312 313 314 308 303 303 307 309 315 317 329 345 357 10 14 7 5 10 12 19 22 17 19 22 23 24 24 25 29 33 37 40 46 52 57 64 78 90 103 122
317 315 316 316 315 316 318 314 309 309 311 313 316 328 340 359 2 4 10 14 9 15 16 24 28 29 34 37 38 38 38 37 37 39 43 50 56 62 67 71 79 89 101 113
322 321 319 318 316 316 320 330 327 320 313 316 327 339 353 7 23 17 12 9 12 17 22 27 28 31 38 44 47 48 47 47 48 49 50 54 60 68 73 77 82 89 102 113
333 333 329 325 328 331 330 334 336 338 343 357 8 11 13 14 16 16 13 12 15 18 24 28 29 32 37 41 45 50 54 56 56 56 57 59 61 64 67 73 81 90 100 106
360 357 357 352 344 339 338 345 354 358 22 48 35 33 31 27 21 17 13 13 14 18 23 26 29 32 35 37 41 46 51 55 58 62 65 68 69 71 73 76 80 84 88 91
27 28 30 26 17 12 9 10 18 35 35 39 29 26 25 22 18 14 13 14 16 20 22 25 28 30 33 35 37 40 43 47 52 56 60 64 67 71 74 76 80 84 89 93
Wind_Speed_850mb
24 14 6 5 16 31 32 32 23 39 46 45 6 10 20 27 20 24 29 32 44 47 43 50 57 62 66 67 67 68 69 65 62 61 62 62 65 66 60 60 61 61 70 83
8 12 7 18 25 33 35 37 36 42 47 13 3 11 17 28 19 23 36 50 54 49 44 51 57 62 65 67 67 68 69 70 66 64 63 65 68 69 67 67 64 62 70 77
14 13 14 20 32 32 28 34 13 25 3 4 5 8 13 24 16 27 47 57 59 52 46 56 57 55 61 64 67 69 72 76 78 74 69 66 66 67 67 67 70 67 69 71
19 9 37 16 6 1 7 5 10 8 6 11 14 19 24 26 22 37 50 59 60 58 56 62 55 56 59 57 61 65 68 73 77 83 84 78 75 74 68 67 67 71 64 66
5 13 17 24 9 10 10 11 14 10 7 18 24 21 39 25 32 42 52 63 63 60 65 73 69 65 67 65 63 67 73 78 79 82 87 93 90 86 80 73 66 66 72 66
5 8 13 7 4 5 8 8 15 20 13 16 15 4 22 40 40 47 60 69 67 64 73 81 79 78 78 78 80 81 83 82 86 89 89 93 95 97 91 82 77 68 68 75
22 13 12 9 10 12 10 10 23 23 34 33 12 34 64 62 50 55 69 72 71 70 79 85 83 84 88 89 89 87 88 93 97 95 100 100 100 101 101 90 83 80 73 67
5 3 14 12 6 9 9 46 49 46 47 42 51 57 59 68 68 68 74 79 77 78 87 92 90 93 96 99 98 96 100 99 98 99 106 111 110 107 102 100 88 84 83 74
19 12 9 19 30 64 65 52 67 57 61 61 55 60 62 63 67 73 76 77 82 91 98 100 97 97 99 107 106 111 113 115 115 113 107 110 117 116 108 99 96 87 80 80
21 26 30 61 71 72 69 72 71 67 63 61 56 54 51 60 71 76 81 86 85 86 97 107 106 105 105 111 110 114 122 127 127 127 124 116 112 115 107 97 87 87 81 83
28 33 40 59 68 70 61 57 53 49 42 40 41 48 55 68 74 82 88 86 84 84 86 101 102 112 110 105 107 119 125 129 128 123 120 116 110 108 106 100 77 80 80 77
31 45 42 52 60 40 36 31 38 43 45 43 43 52 62 73 77 83 88 88 92 96 90 99 99 107 103 104 104 109 115 113 103 99 100 101 102 108 103 89 70 72 74 70
50 75 67 56 40 39 27 30 34 35 39 51 55 54 61 72 80 88 97 96 93 94 96 101 103 104 100 96 90 90 92 95 93 87 87 86 84 82 92 96 71 62 66 64
60 51 42 43 21 23 25 32 38 41 44 48 54 60 68 78 88 93 97 93 88 86 91 92 92 93 91 87 85 84 83 83 85 86 84 80 75 77 74 77 76 61 56 56
50 41 36 28 26 27 30 34 42 46 48 52 58 65 71 79 84 87 84 78 81 86 86 85 87 90 82 78 78 77 77 79 78 79 78 79 77 79 79 74 75 70 62 58
24 21 19 18 21 26 31 34 41 48 56 63 67 70 71 72 73 72 71 75 78 82 80 75 74 74 73 71 72 74 76 75 74 74 74 75 75 73 70 67 66 58 62 58
12 12 17 20 21 27 30 34 42 54 62 65 67 68 69 66 64 66 71 71 75 78 76 71 74 75 68 72 73 71 68 69 68 69 70 68 67 64 59 59 52 56 58 51
15 16 17 21 25 31 37 43 49 56 61 62 63 62 60 56 58 65 69 74 78 79 73 70 67 62 62 59 58 59 61 64 63 63 60 61 63 59 45 41 47 48 44 38
12 15 19 22 28 36 44 49 51 55 55 54 56 54 49 46 52 57 63 69 72 82 80 69 60 57 61 61 51 49 48 49 49 47 43 40 34 29 33 33 31 29 26 25
15 20 24 30 34 40 47 45 48 50 46 46 45 43 41 41 44 49 55 59 63 67 68 63 60 63 61 52 45 42 41 41 39 36 32 28 22 15 11 11 11 14 18 22
20 26 31 35 39 39 40 42 45 45 40 35 34 33 35 36 36 44 50 58 60 63 67 65 68 67 55 48 43 40 37 36 36 35 34 31 26 19 12 5 7 10 13 18
24 28 32 35 38 39 33 33 33 34 32 27 24 24 27 28 32 35 40 50 56 58 59 63 66 61 58 53 49 45 42 39 38 37 36 34 32 29 27 21 18 17 16 15
26 29 32 32 32 32 28 25 24 24 22 19 18 18 19 23 28 36 42 45 47 50 50 54 55 56 60 63 64 61 56 51 47 44 41 37 36 34 34 32 30 28 30 36
24 25 25 25 25 23 24 20 18 15 15 13 11 12 15 19 19 28 30 33 36 41 44 47 49 49 52 57 61 64 67 66 63 58 51 43 41 39 39 37 35 35 37 40
19 19 20 20 18 18 18 16 12 9 8 5 6 8 13 18 23 26 28 30 33 35 38 40 42 44 48 51 52 54 57 59 58 58 59 59 56 53 48 43 40 38 37 36
13 14 16 16 17 16 13 11 10 8 8 7 9 10 12 14 17 19 23 26 29 32 35 37 40 41 43 43 43 45 46 47 47 48 48 49 48 48 47 45 42 38 35 32
12 13 14 13 13 12 10 9 8 8 9 10 10 12 13 15 16 18 21 23 26 29 31 33 35 37 37 37 38 38 38 37 36 36 36 36 36 36 35 33 31 28 26 23
Wind_Direction_850mb
265 287 340 283 280 274 265 261 261 282 281 275 40 354 337 332 340 352 357 352 350 350 348 336 339 338 340 340 341 341 339 340 340 336 335 334 334 330 316 294 286 279 273 268
270 280 278 281 277 265 274 272 261 260 264 61 71 346 326 332 326 333 337 340 343 341 341 334 335 335 333 334 338 336 334 336 334 334 330 323 323 328 329 321 300 286 279 274
263 305 323 283 257 266 260 260 249 259 246 211 246 247 281 307 300 322 335 334 331 327 325 324 328 330 329 332 331 332 334 335 333 333 329 326 320 315 318 322 319 300 283 277
274 22 270 276 9 274 222 104 114 105 208 217 241 274 280 289 266 317 327 325 322 317 316 317 316 319 321 324 326 327 327 328 330 332 330 326 323 319 314 309 311 311 297 283
205 222 306 301 213 195 167 257 174 176 245 257 271 289 282 264 247 298 318 320 315 310 312 314 312 315 316 315 317 320 323 324 325 327 325 326 325 321 315 309 301 301 304 296
87 202 225 245 203 151 114 276 207 199 237 241 250 243 270 281 262 300 314 316 311 307 310 311 310 313 312 311 312 312 315 316 317 319 319 319 321 320 316 313 304 295 297 299
227 249 286 241 207 138 93 263 214 250 275 254 207 257 277 281 279 300 307 309 309 305 308 309 305 306 305 305 304 307 306 308 310 311 311 313 314 315 314 312 306 297 289 288
72 14 278 185 144 159 228 295 296 294 292 280 283 290 285 281 278 297 302 306 306 303 305 305 302 302 302 301 305 305 303 301 300 302 305 307 308 309 309 307 303 297 292 286
195 210 219 204 262 287 287 280 287 283 295 302 297 292 293 285 286 296 301 303 304 305 305 303 303 303 300 300 302 301 301 300 299 299 297 298 301 302 304 303 299 295 288 283
265 255 254 267 273 278 285 287 289 292 300 302 297 294 286 290 297 303 304 304 306 303 302 302 302 301 298 300 299 298 298 297 297 297 295 293 293 295 297 296 292 290 288 281
258 261 265 265 265 270 286 290 287 291 294 295 295 296 303 302 304 305 306 306 306 302 299 297 298 297 296 296 296 296 296 296 295 296 295 294 290 288 288 287 281 279 278 278
261 257 260 267 276 285 289 278 283 291 294 298 306 306 307 304 307 309 309 309 307 305 300 298 297 295 295 295 294 294 295 295 295 294 293 292 290 287 282 284 279 266 264 263
249 261 264 270 276 282 277 285 290 295 299 302 305 308 308 309 311 311 310 312 312 308 305 304 303 302 305 304 302 299 297 297 295 292 291 290 289 286 287 285 282 267 261 261
256 260 267 265 260 277 288 291 295 300 305 307 310 312 314 313 313 317 319 320 319 319 319 317 314 310 315 312 308 303 301 298 295 292 289 287 282 281 281 284 287 281 267 264
252 252 251 260 274 282 290 296 299 306 310 313 315 318 320 319 319 320 324 326 328 327 324 318 311 311 319 315 309 306 304 301 300 297 291 287 283 279 281 280 276 272 267 270
231 242 254 262 273 286 297 304 307 312 316 316 319 320 319 320 321 325 332 335 326 322 328 325 322 324 323 319 316 313 309 305 302 297 294 289 287 285 282 278 277 270 261 271
244 247 254 267 286 296 301 308 311 311 312 314 317 318 321 324 327 335 335 334 333 332 330 328 325 326 325 325 321 315 313 312 311 308 304 302 297 290 285 275 271 263 268 274
257 264 276 290 299 302 307 311 312 311 311 316 316 318 323 329 334 335 338 341 343 340 341 332 329 330 327 326 326 323 320 318 318 313 313 306 300 296 291 282 270 274 280 277
260 275 285 292 298 302 304 307 308 307 312 314 315 318 323 331 335 337 345 348 351 347 346 342 341 337 338 338 331 329 331 331 332 331 328 323 320 309 288 285 282 281 277 260
281 290 299 302 302 302 304 309 307 307 314 311 313 317 325 334 337 346 351 357 0 352 353 354 353 355 346 346 347 348 349 350 351 353 353 353 353 343 319 296 275 263 246 232
298 301 303 303 305 310 312 310 308 309 311 310 312 318 324 337 346 358 358 3 4 6 9 9 10 360 359 1 2 5 7 11 15 17 20 23 24 31 41 90 159 177 182 179
302 308 313 313 312 313 314 308 303 303 307 309 315 317 329 345 357 10 14 7 5 10 12 19 22 17 19 22 23 24 24 25 29 33 37 40 46 52 57 64 78 90 103 122
317 315 316 316 315 316 318 314 309 309 311 313 316 328 340 359 2 4 10 14 9 15 16 24 28 29 34 37 38 38 38 37 37 39 43 50 56 62 67 71 79 89 101 113
322 321 319 318 316 316 320 330 327 320 313 316 327 339 353 7 23 17 12 9 12 17 22 27 28 31 38 44 47 48 47 47 48 49 50 54 60 68 73 77 82 89 102 113
333 333 329 325 328 331 330 334 336 338 343 357 8 11 13 14 16 16 13 12 15 18 24 28 29 32 37 41 45 50 54 56 56 56 57 59 61 64 67 73 81 90 100 106
360 357 357 352 344 339 338 345 354 358 22 48 35 33 31 27 21 17 13 13 14 18 23 26 29 32 35 37 41 46 51 55 58 62 65 68 69 71 73 76 80 84 88 91
27 28 30 26 17 12 9 10 18 35 35 39 29 26 25 22 18 14 13 14 16 20 22 25 28 30 33 35 37 40 43 47 52 56 60 64 67 71 74 76 80 84 89 93